Location: *
(50.3440°N, 18.6237°E)
Time: 13:56:50
(UTC+00:00)

COSMOS 2428 - Pass Details

Date: 30 November 2020
Orbit: 848 x 855 km, 70.9° (Epoch: 27 January)

Event Time Altitude Azimuth Distance (km) Brightness Sun altitude
Rises 15:56:48 0° 245° (WSW) 3,420 8.1 -10.9°
Reaches altitude 10° 15:59:35 10° 257° (WSW) 2,487 6.7 -11.3°
Maximum altitude 16:04:31 29° 316° (NW) 1,521 4.3 -12.0°
Drops below altitude 10° 16:09:28 10° 16° (NNE) 2,494 4.8 -12.8°
Enters shadow 16:10:54 - 23° (NNE) 2,963 5.1 -13.0°
